CZ-4B DEB, 29536

Orbit data source: Space-Track

CZ-4B DEB, 29536 is space debris in SSO originally from a launch on Wed, 26 Apr 2006 UTC launched from the Taiyaun Space Center, China (TSC). Debris objects in space refer to the collection of defunct objects orbiting the Earth. Examples of debris include non-operational satellites, rocket bodies, and fragments generated from explosions, collisions, or faulty payload assembly.

Loading next visibility...
Identifier
29536, 2006-015C
Orbit
SSO
Country
Flag of CNCN / PRC
Related business
Manufacturer
SAST
Mission
Spacecraft
Bus & Motor
Unknown
Mass
Unknown
Launch date (UTC)
2006-04-26 (20 years ago)
Launch vehicle
Unknown
Launch site
Taiyaun Space Center, China (TSC)
Object type
Payload
Rocket body
Debris
Shape & HBR
Unknown shape, 0.1 m
Radar Cross Section
Small (<0.1 m²)

Expand to show TLE details & history
Last TLE update: 11 hours ago

TLE from 11 hours ago
0 CZ-4B DEB
1 29536U 06015C   26071.35245787  .00017199  00000-0  16065-2 0  9991
2 29536  97.8626  31.1114 0084418 283.0728  76.1078 14.91521007 49485
Epoch: 2026-03-12T08:27Z
TLE epoch observation values (Epoch: 2026-03-12T08:27:32.359Z)
Latitude
-0.00003°
Longitude
94.223°
Altitude
582.567 km
Speed
7.577 km/s
True Right ascension
02h 04m 26s
True Declination
0° 00' 00"
Sunlit
Object was in daylight at epoch
Visualization orbit readout
Latitude
Unknown
Longitude
Unknown
Altitude
Unknown
Speed
Unknown
Apparent Right ascension
Unknown
Apparent Declination
Unknown
Sunlit
N/A
Visualization observer readout
Local Sidereal Time
23:21:46
Azimuth
Unknown
Elevation
Unknown
Doppler factor
Unknown
Orbital elements
Apogee altitude
649.041 km
Perigee altitude
531.39 km
Semi-major axis
6,968.353 km
Eccentricity
0.00844
Inclination
97.8626°
RAAN
31.1114°
Arg. of periapsis
283.0728°
True anomaly
77.04921°
Mean anomaly
76.1078°
Eccentric anomaly
76.57827°
Mean motion
3.7312 °/min
Orbital period
96.48 mins
BSTAR
0.0016065
Loading maneuver chart data...
Computing Atmospheric mass density...
Loading historical data...
Loading historical data...
Loading historical data...
Loading historical data...
Loading historical data...
Loading historical data...
Loading historical data...

Documentation

Showing up to 5 results
|